sat.trackr.live / text

‹ back to catalog

TIANMU-1 11

NORAD 58645 · 2023-205A

PAYLOAD ACTIVE UNKNOWN

§ Identity

Operator
Country
PRC
Launch date
2023-12-25
Launch site
JSC
Launch vehicle
Mass (kg)
RCS (m²)

Purposes: earth_obs

External: N2YO · Heavens-Above · Gunter

§ Orbital elements

Epoch: 2026-05-25T04:21:22.216032Z

Period
94.32 min
Inclination
97.3461°
Eccentricity
0.0010859
Mean motion
15.26716761 rev/d
Perigee alt
478.2 km
Apogee alt
493.1 km
Semi-major
6,863.8 km
B*
2.0151e-4
RAAN
167.1033°
Arg perigee
87.7638°
Mean anomaly
272.4844°
Rev number
13,401

§ Raw data

TIANMU-1 111 58645U 23205A   26145.18150713  .00005230  00000+0  20151-3 0  99952 58645  97.3461 167.1033 0010859  87.7638 272.4844 15.26716761134015

JSON: /api/v1/satellites/58645 · /tle

For live sub-satellite position, see the globe view (requires WebGL).

§ Visibility from observer

Set your observer location to see the next 7 days of passes ≥ 10°. The values pass through the URL so the page stays shareable.

No JS? Fill the form by hand. The geolocation button needs JavaScript.